| time (UTC) | temp F | wind direction | speed knots | gust knots | rain 1hr in | rain 24hr in | rain mn in | humidity % | barometer mb |
| 20260507191515 | 70 | 261 | 2.6 | 7.0 | 0.00 | 0.00 | 0.00 | 65 | 1011.7 |
| 20260507190014 | 70 | 218 | 1.7 | 7.0 | 0.00 | 0.00 | 0.00 | 65 | 1011.5 |
| 20260507183029 | 71 | 173 | 1.7 | 6.1 | 0.00 | 0.00 | 0.00 | 66 | 1011.4 |
| 20260507181514 | 70 | 258 | 0.9 | 6.1 | 0.00 | 0.00 | 0.00 | 66 | 1011.5 |
| 20260507180012 | 70 | 227 | 1.7 | 5.2 | 0.00 | 0.00 | 0.00 | 67 | 1011.7 |
| 20260507173011 | 70 | 240 | 0.9 | 3.5 | 0.00 | 0.00 | 0.00 | 67 | 1011.7 |
| 20260507171510 | 71 | 247 | 0.0 | 4.3 | 0.00 | 0.00 | 0.00 | 66 | 1011.9 |
| 20260507170013 | 71 | 256 | 0.9 | 4.3 | 0.00 | 0.00 | 0.00 | 66 | 1012.0 |
| 20260507163010 | 72 | 250 | 1.7 | 6.1 | 0.00 | 0.00 | 0.00 | 63 | 1012.2 |
| 20260507161510 | 72 | 248 | 0.9 | 6.1 | 0.00 | 0.00 | 0.00 | 63 | 1012.3 |
| 20260507160009 | 72 | 297 | 0.0 | 5.2 | 0.00 | 0.00 | 0.00 | 63 | 1012.4 |
| 20260507153011 | 73 | 282 | 0.9 | 5.2 | 0.00 | 0.00 | 0.00 | 62 | 1012.6 |
| 20260507151508 | 73 | 266 | 0.9 | 6.1 | 0.00 | 0.00 | 0.00 | 62 | 1012.7 |
| 20260507150011 | 73 | 237 | 1.7 | 6.1 | 0.00 | 0.00 | 0.00 | 62 | 1012.8 |
| 20260507143007 | 74 | 258 | 1.7 | 7.0 | 0.00 | 0.00 | 0.00 | 60 | 1012.9 |
| 20260507141507 | 74 | 268 | 1.7 | 7.8 | 0.00 | 0.00 | 0.00 | 61 | 1013.0 |
| 20260507140014 | 75 | 255 | 0.9 | 6.1 | 0.00 | 0.00 | 0.00 | 61 | 1013.0 |
| 20260507133009 | 75 | 267 | 0.0 | 2.6 | 0.00 | 0.00 | 0.00 | 62 | 1013.1 |
| 20260507131516 | 75 | 276 | 0.9 | 5.2 | 0.00 | 0.00 | 0.00 | 62 | 1013.1 |
| 20260507130004 | 75 | 268 | 0.0 | 4.3 | 0.00 | 0.00 | 0.00 | 63 | 1013.1 |
| 20260507123011 | 75 | 275 | 0.0 | 2.6 | 0.00 | 0.00 | 0.00 | 66 | 1013.1 |
| 20260507121503 | 75 | 274 | 0.0 | 2.6 | 0.00 | 0.00 | 0.00 | 64 | 1013.2 |
| 20260507120005 | 75 | 270 | 0.0 | 0.9 | 0.00 | 0.00 | 0.00 | 63 | 1013.1 |
| 20260507113004 | 74 | 287 | 0.0 | 0.0 | 0.00 | 0.00 | 0.00 | 67 | 1012.9 |
| 20260507111508 | 72 | 280 | 0.0 | 0.9 | 0.00 | 0.00 | 0.00 | 69 | 1012.8 |
| 20260507110003 | 70 | 210 | 0.0 | 0.0 | 0.00 | 0.00 | 0.00 | 77 | 1012.6 |
| 20260507103059 | 71 | 210 | 0.0 | 0.0 | 0.00 | 0.00 | 0.00 | 78 | 1012.3 |
| 20260507101559 | 71 | 210 | 0.0 | 0.0 | 0.00 | 0.00 | 0.00 | 78 | 1012.2 |
| 20260507100052 | 72 | 210 | 0.0 | 0.0 | 0.00 | 0.00 | 0.00 | 75 | 1012.1 |
| 20260507093053 | 76 | 211 | 0.0 | 0.0 | 0.00 | 0.00 | 0.00 | 67 | 1012.0 |
| 20260507091607 | 78 | 210 | 0.0 | 0.0 | 0.00 | 0.00 | 0.00 | 63 | 1011.8 |
| 20260507090047 | 81 | 210 | 0.0 | 0.0 | 0.00 | 0.00 | 0.00 | 57 | 1011.6 |
| 20260507083045 | 84 | 210 | 0.0 | 0.9 | 0.00 | 0.00 | 0.00 | 47 | 1011.1 |
| 20260507081545 | 85 | 218 | 0.0 | 2.6 | 0.00 | 0.00 | 0.00 | 45 | 1010.9 |
| 20260507080045 | 86 | 235 | 0.0 | 6.1 | 0.00 | 0.00 | 0.00 | 42 | 1010.8 |
| 20260507073044 | 87 | 257 | 1.7 | 7.0 | 0.00 | 0.00 | 0.00 | 40 | 1010.4 |
| 20260507071544 | 87 | 276 | 1.7 | 6.1 | 0.00 | 0.00 | 0.00 | 40 | 1010.3 |
| 20260507070057 | 87 | 235 | 0.9 | 7.0 | 0.00 | 0.00 | 0.00 | 41 | 1010.2 |
| 20260507063041 | 88 | 260 | 0.9 | 9.6 | 0.00 | 0.00 | 0.00 | 39 | 1010.2 |
| 20260507061540 | 88 | 280 | 0.9 | 8.7 | 0.00 | 0.00 | 0.00 | 41 | 1010.3 |
| 20260507060051 | 87 | 220 | 3.5 | 12.2 | 0.00 | 0.00 | 0.00 | 39 | 1010.3 |
| 20260507053035 | 87 | 210 | 4.3 | 12.2 | 0.00 | 0.00 | 0.00 | 39 | 1010.5 |
| 20260507051539 | 87 | 356 | 2.6 | 7.8 | 0.00 | 0.00 | 0.00 | 41 | 1010.6 |
| 20260507050039 | 87 | 249 | 2.6 | 11.3 | 0.00 | 0.00 | 0.00 | 39 | 1010.7 |
| 20260507043029 | 87 | 254 | 4.3 | 11.3 | 0.00 | 0.00 | 0.00 | 41 | 1011.2 |
| 20260507041525 | 86 | 202 | 0.9 | 9.6 | 0.00 | 0.00 | 0.00 | 43 | 1011.5 |
| 20260507040023 | 86 | 214 | 3.5 | 10.4 | 0.00 | 0.00 | 0.00 | 42 | 1011.7 |
| 20260507033019 | 85 | 213 | 5.2 | 11.3 | 0.00 | 0.00 | 0.00 | 41 | 1012.0 |
| 20260507031515 | 85 | 244 | 5.2 | 11.3 | 0.00 | 0.00 | 0.00 | 43 | 1012.2 |
| 20260507030017 | 85 | 213 | 6.1 | 12.2 | 0.00 | 0.00 | 0.00 | 43 | 1012.4 |
| 20260507023007 | 84 | 273 | 3.5 | 9.6 | 0.00 | 0.00 | 0.00 | 45 | 1013.0 |
| 20260507021504 | 84 | 257 | 3.5 | 11.3 | 0.00 | 0.00 | 0.00 | 44 | 1013.2 |
| 20260507020001 | 83 | 289 | 4.3 | 9.6 | 0.00 | 0.00 | 0.00 | 47 | 1013.5 |
| 20260507013057 | 81 | 212 | 5.2 | 10.4 | 0.00 | 0.00 | 0.00 | 48 | 1013.9 |
| 20260507011555 | 81 | 233 | 4.3 | 12.2 | 0.00 | 0.00 | 0.00 | 49 | 1014.1 |
| 20260507010109 | 80 | 260 | 7.0 | 13.0 | 0.00 | 0.00 | 0.00 | 50 | 1014.1 |
| 20260507003046 | 78 | 328 | 5.2 | 13.9 | 0.00 | 0.00 | 0.00 | 52 | 1014.1 |
| 20260507001551 | 78 | 202 | 6.1 | 14.8 | 0.00 | 0.00 | 0.00 | 51 | 1014.1 |
| 20260507000041 | 78 | 237 | 3.5 | 13.9 | 0.00 | 0.00 | 0.00 | 53 | 1014.2 |
| 20260506233038 | 77 | 221 | 6.1 | 14.8 | 0.00 | 0.00 | 0.00 | 54 | 1013.8 |
| 20260506231536 | 76 | 247 | 4.3 | 10.4 | 0.00 | 0.00 | 0.00 | 57 | 1013.6 |
| 20260506230031 | 75 | 273 | 3.5 | 9.6 | 0.00 | 0.00 | 0.00 | 59 | 1013.5 |
| 20260506223028 | 73 | 240 | 1.7 | 10.4 | 0.00 | 0.00 | 0.00 | 63 | 1013.3 |
| 20260506221526 | 73 | 238 | 3.5 | 7.8 | 0.00 | 0.00 | 0.00 | 63 | 1013.1 |
| 20260506220025 | 72 | 221 | 2.6 | 7.8 | 0.00 | 0.00 | 0.00 | 65 | 1012.8 |
| 20260506213020 | 71 | 215 | 2.6 | 7.8 | 0.00 | 0.00 | 0.00 | 66 | 1012.6 |
| 20260506211518 | 72 | 218 | 2.6 | 7.0 | 0.00 | 0.00 | 0.00 | 65 | 1012.5 |
| 20260506210016 | 72 | 273 | 3.5 | 7.8 | 0.00 | 0.00 | 0.00 | 64 | 1012.2 |
| 20260506203016 | 73 | 264 | 2.6 | 9.6 | 0.00 | 0.00 | 0.00 | 62 | 1011.8 |
| 20260506201520 | 73 | 253 | 4.3 | 8.7 | 0.00 | 0.00 | 0.00 | 62 | 1011.7 |
| 20260506200016 | 73 | 266 | 4.3 | 9.6 | 0.00 | 0.00 | 0.00 | 64 | 1011.5 |
| 20260506193008 | 73 | 245 | 2.6 | 7.0 | 0.00 | 0.00 | 0.00 | 64 | 1011.4 |